"TOA5","AWS1","CR1000","7964","CR1000.Std.14","CPU:AWS1_114.CR1","64363","TBL110"
"TIMESTAMP","RECORD","Wind_spd_WVc(1)","Wind_spd_WVc(2)","Air_Temp_Avg","Humidity_Avg","SW_upper_Wm2_Avg","Rain_Tot","Press_Avg","Issui_Tot","Depth_cm","SR50A_Raw","Quality","Ground_Temp_Avg(1)","Ground_Temp_Avg(2)","SW_lower_Wm2_Avg","Albedo_Avg","SWC_per(1)","SWC_per(2)","Period(1)","Period(2)"
"TS","RN","","","","","","","","","","","","","","","","","","",""
"","","WVc","WVc","Avg","Avg","Avg","Tot","Avg","Tot","Smp","Smp","Smp","Avg","Avg","Avg","Avg","Smp","Smp","Smp","Smp"
"2016-10-22 00:00:00",258541,0.21,179.9,7.66,85.7,0,0,868.5098,0,-2.28,3.16,194,12.93,13.92,0.925106,0,50.06,57.27,33.31,35.05
"2016-10-22 00:10:00",258542,0.092,179,7.634,89.8,0,0,868.5098,0,-1.781,3.151,195,12.84,13.89,0.8340835,0,50.06,57.27,33.31,35.05
"2016-10-22 00:20:00",258543,0.079,153.7,7.766,88.9,0,0,868.5098,0,-1.948,3.158,185,12.8,13.88,0.5724713,0,50.01,57.27,33.3,35.05
"2016-10-22 00:30:00",258544,0,153.7,7.439,91.8,0.1572784,0,868.5098,0,-1.784,3.153,188,12.83,13.87,0.5345556,0.53,50.01,57.27,33.3,35.05
"2016-10-22 00:40:00",258545,0,0,8.23,92.5,0.5858511,0,868.5329,0,-1.767,3.149,197,12.82,13.86,1.376165,2.516,50.06,57.22,33.31,35.03
"2016-10-22 00:50:00",258546,0.008,152.7,8.62,90.9,0.837463,0,868.7499,0,-1.86,3.149,193,12.81,13.82,1.129705,1.401,50.06,57.27,33.31,35.05
"2016-10-22 01:00:00",258547,0.035,143.7,8.73,90.8,0.1651308,0,868.5582,0,-1.96,3.15,193,12.81,13.82,0.9136017,0.964,50.01,57.22,33.3,35.03
"2016-10-22 01:10:00",258548,0.031,137.8,8.76,90.7,0,0,868.5771,0,-2.44,3.154,197,12.79,13.85,0.8832682,0,50.06,57.27,33.31,35.05
"2016-10-22 01:20:00",258549,0.086,133.4,8.63,91,0,0,868.594,0,-2.545,3.156,195,12.69,13.83,0.5155545,0,50.06,57.27,33.31,35.05
"2016-10-22 01:30:00",258550,0,91.9,8.52,91.1,0,0,868.7457,0,-2.648,3.158,193,12.71,13.79,0.140261,0,50.06,57.22,33.31,35.03
"2016-10-22 01:40:00",258551,0.121,184.5,8.38,91.8,0,0,868.6487,0,-2.698,3.158,192,12.72,13.78,0.2084961,0,50.01,57.22,33.3,35.03
"2016-10-22 01:50:00",258552,0.017,188.5,8.39,90.7,0,0,868.7584,0,-3.107,3.163,179,12.72,13.82,0.05686258,0,50.01,57.27,33.3,35.05
"2016-10-22 02:00:00",258553,0.111,188.4,8.16,91.6,0,0,868.7183,0,-2.627,3.159,197,12.69,13.85,0.007581678,0,50.01,57.22,33.3,35.03
"2016-10-22 02:10:00",258554,0.083,155.1,7.783,92.4,0,0,868.7626,0,-2.613,3.163,179,12.59,13.85,0,0,50.06,57.22,33.31,35.03
"2016-10-22 02:20:00",258555,0.178,163.1,7.337,94.2,0,0,868.5709,0,-2.721,3.167,182,12.59,13.85,0,0,50.06,57.27,33.31,35.05
"2016-10-22 02:30:00",258556,0.214,158.6,7.117,96.3,0,0,868.4865,0,-2.818,3.166,192,12.63,13.85,0.06065342,0,50.01,57.22,33.3,35.03
"2016-10-22 02:40:00",258557,0.258,156.8,7.088,95.9,0,0,868.2632,0,-2.541,3.164,192,12.63,13.85,0.01137252,0,50.06,57.22,33.31,35.03
"2016-10-22 02:50:00",258558,0.123,178.2,7.614,94.6,0,0,868.2548,0,-2.525,3.158,193,12.63,13.84,0.7619585,0,50.06,57.27,33.31,35.05
"2016-10-22 03:00:00",258559,0.019,155.5,8.21,89,0,0,868.2063,0,-3.191,3.167,192,12.63,13.79,0.9969906,0,50.01,57.22,33.3,35.03
"2016-10-22 03:10:00",258560,0.056,168.9,7.608,91.4,0,0,868.0967,0,-1.996,3.154,193,12.62,13.82,0.4624823,0,50.01,57.22,33.3,35.03
"2016-10-22 03:20:00",258561,0.012,308.5,8.3,87.5,0,0,868.1726,0,-3.439,3.167,182,12.58,13.78,1.353329,0,50.06,57.22,33.31,35.03
"2016-10-22 03:30:00",258562,0.065,192.7,7.4,90,0,0,868.2336,0,-2.417,3.164,195,12.55,13.77,0.1137252,0,50.01,57.22,33.3,35.03
"2016-10-22 03:40:00",258563,0.26,191.4,6.962,93.5,0,0,868.2401,0,-2.847,3.168,182,12.55,13.76,0.03411755,0,50.01,57.22,33.3,35.03
"2016-10-22 03:50:00",258564,0.457,190.2,6.664,94.8,0,0,868.0356,0,-2.144,3.164,197,12.55,13.76,0.01516336,0,50.01,57.22,33.3,35.03
"2016-10-22 04:00:00",258565,0.267,190.4,6.763,96.9,0,0,868.004,0,-2.093,3.163,195,12.52,13.76,0.2729404,0,50.01,57.27,33.3,35.05
"2016-10-22 04:10:00",258566,0.552,186.1,6.45,97.4,0,0,867.8038,0,-1.286,3.156,207,12.46,13.76,0.07960761,0,50.06,57.22,33.31,35.03
"2016-10-22 04:20:00",258567,0.472,187.7,6.557,98.8,0,0,867.7111,0,-1.736,3.159,201,12.46,13.76,0.3032671,0,50.06,57.22,33.31,35.03
"2016-10-22 04:30:00",258568,0.498,189.4,6.428,98.1,0,0,867.5848,0,-1.337,3.157,198,12.46,13.73,0.140261,0,50.01,57.22,33.3,35.03
"2016-10-22 04:40:00",258569,0.479,191.3,6.286,96.1,0,0,867.6754,0,-1.541,3.16,197,12.45,13.71,0.2426137,0,50.01,57.22,33.3,35.03
"2016-10-22 04:50:00",258570,0.423,187.4,6.003,95.8,0,0,867.7491,0,-1.467,3.16,197,12.42,13.71,0.07960761,0,50.01,57.22,33.3,35.03
"2016-10-22 05:00:00",258571,0.352,187.1,5.9,95.7,0,0,867.9577,0,-1.469,3.161,196,12.38,13.65,0.1781694,0,50.01,57.22,33.3,35.03
"2016-10-22 05:10:00",258572,0.355,187.6,5.893,95.6,0,0,867.9514,0,-1.547,3.162,198,12.37,13.66,0.4397383,0,50.01,57.22,33.3,35.03
"2016-10-22 05:20:00",258573,0.51,189.4,5.683,95.2,0,0,867.8544,0,-0.993,3.156,203,12.38,13.68,0.3677199,0,50.01,57.22,33.3,35.03
"2016-10-22 05:30:00",258574,0.387,192.1,5.888,95.1,0,0,867.9977,0,-0.952,3.156,198,12.34,13.69,0.5307379,0,50.01,57.22,33.3,35.03
"2016-10-22 05:40:00",258575,0.495,191.8,5.925,95.4,0,0,868.004,0,-1.259,3.158,197,12.32,13.7,0.5345656,0,50.01,57.22,33.3,35.03
"2016-10-22 05:50:00",258576,0.354,190.5,5.996,93.6,0,0,867.8881,0,-1.317,3.16,216,12.32,13.71,0.6255732,0,50.01,57.22,33.3,35.03
"2016-10-22 06:00:00",258577,0.549,181.9,6.033,92.3,0,0,867.8144,0,-2.225,3.167,190,12.33,13.72,0.9781917,0,50.01,57.22,33.3,35.03
"2016-10-22 06:10:00",258578,0.378,169.5,6.25,89.9,1.21906,0,867.6185,0,-1.927,3.162,195,12.35,13.76,1.493882,1.138,50.01,57.22,33.3,35.03
"2016-10-22 06:20:00",258579,0.193,175.5,7.142,85.3,10.9799,0,867.2393,0,-0.286,3.137,221,12.39,13.78,3.822132,0.365,50.01,57.22,33.3,35.03
"2016-10-22 06:30:00",258580,0.265,319.2,8.99,71.28,17.14983,0,867.332,0,-1.314,3.139,213,12.34,13.78,5.865789,0.344,50.01,57.22,33.3,35.03
"2016-10-22 06:40:00",258581,0.044,341.7,9.37,68.94,10.65263,0,867.7175,0,-0.654,3.135,223,12.26,13.75,4.185818,0.393,50.01,57.22,33.3,35.03
"2016-10-22 06:50:00",258582,0.126,180.6,7.932,79.36,24.40197,0,867.926,0,-1.085,3.151,200,12.23,13.74,4.291646,0.189,50.01,57.22,33.3,35.03
"2016-10-22 07:00:00",258583,0.161,157,7.075,84.5,35.94442,0,867.7554,0,-0.963,3.145,211,12.21,13.72,6.986799,0.194,50.01,57.16,33.3,35.02
"2016-10-22 07:10:00",258584,0.123,52.26,8.74,74.86,62.58838,0,867.7343,0,-1.642,3.143,195,12.2,13.7,12.77908,0.207,50.01,57.22,33.3,35.03
"2016-10-22 07:20:00",258585,0.289,331.4,9.52,72.53,61.18428,0,867.7512,0,-1.381,3.139,196,12.2,13.68,12.26342,0.203,50.06,57.22,33.31,35.03
"2016-10-22 07:30:00",258586,0.284,107.1,9.54,76.49,66.60973,0,867.7406,0,-1.203,3.137,196,12.2,13.67,14.71226,0.22,50.01,57.22,33.3,35.03
"2016-10-22 07:40:00",258587,0.611,125,9.99,75.46,82.50918,0,867.5974,0,-1.19,3.134,196,12.2,13.67,17.64636,0.214,50.01,57.22,33.3,35.03
"2016-10-22 07:50:00",258588,0.435,349.4,10.26,75.55,96.43893,0,867.7154,0,-1.161,3.133,204,12.2,13.66,18.93524,0.196,50.01,57.22,33.3,35.03
"2016-10-22 08:00:00",258589,0.187,315.4,10.37,75.62,106.2366,0,867.8586,0,-1.157,3.132,196,12.2,13.64,18.90112,0.178,50.06,57.16,33.31,35.02
"2016-10-22 08:10:00",258590,0.15,82.4,10.74,75.33,119.5137,0,867.8469,0,-1.6,3.133,195,12.2,13.65,20.86098,0.173,50.01,57.16,33.3,35.02
"2016-10-22 08:20:00",258591,0.414,142.2,11.24,71.79,136.6359,0,867.6064,0,-1.417,3.13,196,12.17,13.64,23.04072,0.168,50.01,57.22,33.3,35.03
"2016-10-22 08:30:00",258592,0.222,141.7,11.36,69.14,115.3383,0,867.6693,0,-1.542,3.131,195,12.16,13.62,18.68125,0.16,50.01,57.16,33.3,35.02
"2016-10-22 08:40:00",258593,0.55,122.6,11.39,70.91,99.53548,0,867.5628,0,-1.786,3.132,208,12.15,13.63,17.99481,0.179,50.01,57.16,33.3,35.02
"2016-10-22 08:50:00",258594,0.604,93.9,11.48,69.29,135.5685,0,867.66,0,-1.322,3.13,225,12.13,13.61,23.91093,0.176,50.01,57.22,33.3,35.03
"2016-10-22 09:00:00",258595,0.422,117.7,11.39,71.6,120.8236,0,867.4658,0,-1.569,3.129,213,12.1,13.58,21.73632,0.18,50.01,57.16,33.3,35.02
"2016-10-22 09:10:00",258596,0.282,17.69,11.61,69.14,120.4904,0,867.3919,0,-0.243,3.118,260,12.04,13.56,22.60604,0.188,50.01,57.22,33.3,35.03
"2016-10-22 09:20:00",258597,0.651,11.56,11.56,68.53,157.0102,0,867.156,0,-0.841,3.122,246,12.02,13.54,30.85509,0.197,50.06,57.16,33.31,35.02
"2016-10-22 09:30:00",258598,0.31,351.3,11.97,66.94,229.1411,0,866.9265,0,-0.085,3.112,285,12.01,13.53,38.14581,0.165,50.06,57.16,33.31,35.02
"2016-10-22 09:40:00",258599,0.184,22.65,12.29,65.28,246.8814,0,866.8612,0,-2.362,3.135,196,12.06,13.52,37.43318,0.152,50.01,57.16,33.3,35.02
"2016-10-22 09:50:00",258600,0.373,34.41,12.14,66.04,251.8253,0,866.8022,0,-2.459,3.135,181,12.07,13.5,37.6984,0.15,50.06,57.16,33.31,35.02
"2016-10-22 10:00:00",258601,0.188,289.8,12.18,68.3,238.0064,0,866.7369,0,-2.401,3.133,196,12.1,13.47,36.58805,0.154,50.01,57.16,33.3,35.02
"2016-10-22 10:10:00",258602,0.351,75.13,12.47,67.61,243.0096,0,866.6316,0,-2.396,3.132,197,12.11,13.47,37.05796,0.152,50.01,57.16,33.3,35.02
"2016-10-22 10:20:00",258603,0.137,127.1,12.67,69.02,231.7847,0,866.4105,0,-1.012,3.118,220,12.09,13.45,36.69416,0.158,50.01,57.16,33.3,35.02
"2016-10-22 10:30:00",258604,0.379,87.7,12.86,66.95,284.7061,0,866.3957,0,-1.772,3.124,192,12.08,13.45,49.41566,0.174,49.95,57.16,33.28,35.02
"2016-10-22 10:40:00",258605,0.456,326.2,12.99,69.22,266.8547,0,866.3957,0,-2.751,3.135,192,12.17,13.45,40.90813,0.153,50.06,57.16,33.31,35.02
"2016-10-22 10:50:00",258606,0.278,337.5,12.6,72.54,253.6214,0,866.3957,0,-2.786,3.137,189,12.19,13.43,38.78599,0.153,50.01,57.16,33.3,35.02
"2016-10-22 11:00:00",258607,0.564,352,12.29,74.47,240.0187,0,866.3662,0,-2.411,3.135,187,12.16,13.43,45.69433,0.191,50.01,57.16,33.3,35.02
"2016-10-22 11:10:00",258608,0.472,317.3,12.46,74.75,266.6503,0,866.1492,0,-3.117,3.14,190,12.22,13.45,56.77874,0.213,50.01,57.1,33.3,35.01
"2016-10-22 11:20:00",258609,0.363,315.5,12.42,75.42,311.1254,0,865.966,0,-3.146,3.141,177,12.26,13.45,51.98118,0.168,50.01,57.16,33.3,35.02
"2016-10-22 11:30:00",258610,0.321,329.5,12.61,75.37,327.5069,0,865.8797,0,-2.571,3.133,189,12.28,13.42,49.35503,0.151,50.01,57.16,33.3,35.02
"2016-10-22 11:40:00",258611,0.219,316.9,13.03,74.43,321.0848,0,865.787,0,-2.38,3.129,191,12.31,13.42,48.20301,0.15,49.95,57.16,33.28,35.02
"2016-10-22 11:50:00",258612,0.4,16.32,13.07,73.9,274.2122,0,865.6375,0,-3.21,3.139,186,12.37,13.42,40.66181,0.148,49.95,57.1,33.28,35.01
"2016-10-22 12:00:00",258613,0.277,306.5,13.11,74.27,269.6963,0,865.6375,0,-1.831,3.126,192,12.4,13.37,39.84706,0.148,49.95,57.16,33.28,35.02
"2016-10-22 12:10:00",258614,0.26,351.5,13,75.43,277.0302,0,865.6332,0,-2.941,3.134,186,12.41,13.33,41.51825,0.15,50.01,57.16,33.3,35.02
"2016-10-22 12:20:00",258615,0.296,160.3,13.66,73.89,402.029,0,865.351,0,-0.465,3.107,200,12.41,13.32,63.69845,0.157,49.95,57.16,33.28,35.02
"2016-10-22 12:30:00",258616,0.449,29.66,13.67,71.62,314.8278,0,865.1319,0,-1.598,3.119,200,12.44,13.33,47.21394,0.149,49.95,57.16,33.28,35.02
"2016-10-22 12:40:00",258617,0.223,301.1,13.4,72.69,235.2604,0,865.0393,0,-1.632,3.121,203,12.51,13.3,34.01456,0.145,49.9,57.16,33.27,35.02
"2016-10-22 12:50:00",258618,0.282,350.8,13.46,73.38,223.0769,0,864.9254,0,-1.76,3.122,200,12.56,13.29,32.33586,0.145,49.95,57.16,33.28,35.02
"2016-10-22 13:00:00",258619,0.179,42.16,13.42,73.25,217.6858,0,864.8653,0,-2.068,3.125,188,12.56,13.31,31.3735,0.144,49.95,57.16,33.28,35.02
"2016-10-22 13:10:00",258620,0.178,3.107,13.32,73.95,212.9347,0,864.6985,0,-1.814,3.123,193,12.61,13.35,30.55125,0.143,49.95,57.1,33.28,35.01
"2016-10-22 13:20:00",258621,0.17,3.804,13.23,74.78,135.2725,0,864.627,0,-1.663,3.122,182,12.61,13.36,17.87147,0.13,49.9,57.16,33.27,35.02
"2016-10-22 13:30:00",258622,0.21,334.8,12.85,76.87,101.4563,0,864.7016,0,-1.223,3.121,200,12.67,13.34,12.49033,0.123,49.95,57.1,33.28,35.01
"2016-10-22 13:40:00",258623,0.166,33.61,12.64,78.76,134.058,0,864.6326,0,-2.143,3.13,198,12.74,13.29,18.48917,0.138,49.9,57.1,33.27,35.01
"2016-10-22 13:50:00",258624,0.175,21.97,12.48,81.2,94.00059,0,864.6279,0,-2.357,3.134,198,12.74,13.29,12.76696,0.136,49.95,57.1,33.28,35.01
"2016-10-22 14:00:00",258625,0.109,19.58,12.15,84.3,90.59303,0,864.6389,0,-1.778,3.13,212,12.8,13.28,12.51685,0.138,49.95,57.1,33.28,35.01
"2016-10-22 14:10:00",258626,0.048,357.8,12.02,86.6,90.08603,0,864.6263,0,-2.386,3.135,193,12.77,13.3,12.95265,0.144,49.95,57.1,33.28,35.01
"2016-10-22 14:20:00",258627,0.021,217.8,12.16,87.6,111.2192,0,864.5338,0,-1.797,3.129,202,12.84,13.31,16.24576,0.146,49.9,57.1,33.27,35.01
"2016-10-22 14:30:00",258628,0.357,137.9,12.04,87.4,111.2427,0,864.3441,0,-1.909,3.132,200,12.89,13.3,16.36703,0.147,49.9,57.1,33.27,35.01
"2016-10-22 14:40:00",258629,0.724,139,11.69,89.2,156.2523,0,864.2451,0,-3.368,3.147,182,12.86,13.31,23.66568,0.151,49.9,57.1,33.27,35.01
"2016-10-22 14:50:00",258630,0.352,134.2,11.59,90.5,89.68121,0,864.2136,0,-3.499,3.149,181,12.89,13.32,13.37329,0.149,49.9,57.1,33.27,35.01
"2016-10-22 15:00:00",258631,0.28,86.7,11.6,89,56.20698,0,864.2493,0,-3.397,3.148,173,12.96,13.32,8.295305,0.147,49.9,57.1,33.27,35.01
"2016-10-22 15:10:00",258632,0.035,35.93,11.63,88.8,35.32539,0,864.3737,0,-3.397,3.148,182,12.98,13.32,5.301568,0.15,49.9,57.1,33.27,35.01
"2016-10-22 15:20:00",258633,0.399,44.55,11.48,91.3,27.34298,0,864.5568,0,-3.58,3.151,187,12.97,13.32,4.255654,0.156,49.9,57.1,33.27,35.01
"2016-10-22 15:30:00",258634,0.173,358.5,11.2,94.2,39.04344,0,864.6285,0,-3.817,3.155,197,12.98,13.32,5.661574,0.145,49.84,57.1,33.26,35.01
"2016-10-22 15:40:00",258635,0.145,77.56,11.14,95.4,32.18902,0,864.6263,0,-4.017,3.156,197,13.02,13.32,4.922614,0.154,49.9,57.1,33.27,35.01
"2016-10-22 15:50:00",258636,0.318,106.5,11.17,92.7,23.05111,0,864.5842,0,-4.144,3.157,194,13.04,13.32,3.888069,0.169,49.9,57.1,33.27,35.01
"2016-10-22 16:00:00",258637,0.261,94.2,11.25,90.9,25.42893,0,864.5189,0,-4.221,3.158,199,13.1,13.32,4.426184,0.175,49.9,57.1,33.27,35.01
"2016-10-22 16:10:00",258638,0.597,41.18,11.15,90.9,22.35152,0,864.6116,0,-4.221,3.158,199,13.04,13.32,4.100283,0.184,49.9,57.1,33.27,35.01
"2016-10-22 16:20:00",258639,0.081,138.9,11.27,91.5,26.62767,0,864.4094,0,-4.323,3.159,196,13.02,13.32,4.672503,0.176,49.9,57.1,33.27,35.01
"2016-10-22 16:30:00",258640,0.061,165,11.25,91.6,18.94003,0,864.3737,0,-4.45,3.16,202,13.02,13.32,3.414376,0.181,49.84,57.04,33.26,34.99
"2016-10-22 16:40:00",258641,0.15,312.1,11.15,90.7,12.10134,0,864.4495,0,-3.564,3.153,204,13.05,13.32,2.455623,0.207,49.84,57.04,33.26,34.99
"2016-10-22 16:50:00",258642,0.091,303.3,10.96,92.3,6.217708,0,864.3568,0,-3.845,3.156,208,13.09,13.32,1.40592,0.226,49.84,57.04,33.26,34.99
"2016-10-22 17:00:00",258643,0,0,10.92,93.8,3.230693,0,864.361,0,-4.049,3.158,197,13.12,13.32,0.9208584,0.294,49.84,57.04,33.26,34.99
"2016-10-22 17:10:00",258644,0,0,10.83,94.4,0.235817,0,864.3505,0,-4.204,3.16,202,13.13,13.33,0.3827437,0.2,49.84,57.04,33.26,34.99
"2016-10-22 17:20:00",258645,0.046,106.3,10.7,96.6,0,0,864.2136,0,-3.775,3.157,197,13.18,13.35,0.2463202,0,49.84,57.04,33.26,34.99
"2016-10-22 17:30:00",258646,0.179,138.8,10.48,98.6,0,0,864.1166,0,-3.424,3.155,208,13.18,13.36,0,0,49.79,57.04,33.24,34.99
"2016-10-22 17:40:00",258647,0.145,111,10.4,100,0,0,864.1208,0,-3.497,3.155,202,13.19,13.38,0.1705294,0,49.84,57.04,33.26,34.99
"2016-10-22 17:50:00",258648,0.021,85.2,10.46,99.9,0,0,864.2914,0,-3.473,3.155,214,13.19,13.39,0.4547449,0,49.79,57.04,33.24,34.99
"2016-10-22 18:00:00",258649,0.358,135.8,10.26,99.7,0,0,863.9776,0,-3.224,3.154,203,13.18,13.41,0.2008457,0,49.79,57.04,33.24,34.99
"2016-10-22 18:10:00",258650,0.349,136.3,10.17,98.4,0,0,863.9039,0,-3.02,3.152,211,13.18,13.4,0.3827437,0,49.84,57.04,33.26,34.99
"2016-10-22 18:20:00",258651,0.048,141.2,10.27,91.3,0,0,863.9081,0,-3.072,3.152,213,13.18,13.41,0.4547466,0,49.84,57.04,33.26,34.99
"2016-10-22 18:30:00",258652,0.179,143.3,10.2,90.7,0,0,863.8682,0,-2.933,3.152,217,13.19,13.44,0.4547645,0,49.79,57.04,33.24,34.99
"2016-10-22 18:40:00",258653,0.077,168.3,10.07,91.1,0,0,863.8723,0,-3.011,3.152,229,13.18,13.47,0.4472051,0,49.79,57.04,33.24,34.99
"2016-10-22 18:50:00",258654,0.029,214.7,10.24,84.3,0,0,864.1103,0,-4.083,3.162,195,13.15,13.48,0.8565377,0,49.84,57.04,33.26,34.99
"2016-10-22 19:00:00",258655,0.072,196.4,10.14,85.5,0,0,863.9355,0,-3.355,3.157,204,13.13,13.51,0.6897934,0,49.79,57.04,33.24,34.99
"2016-10-22 19:10:00",258656,0.044,309.3,9.85,87.4,0,0,863.8682,0,-2.773,3.151,230,13.09,13.51,0.5003001,0,49.84,57.04,33.26,34.99
"2016-10-22 19:20:00",258657,0.065,339.6,9.86,87,0,0,864.0766,0,-2.769,3.153,225,13.12,13.53,0.7921911,0,49.84,57.04,33.26,34.99
"2016-10-22 19:30:00",258658,0.014,148.8,9.33,89.9,0,0,864.1124,0,-3.719,3.164,189,13.14,13.55,0.04169647,0,49.79,57.04,33.24,34.99
"2016-10-22 19:40:00",258659,0,0,9.41,89.7,0,0,864.1208,0,-3.487,3.16,204,13.17,13.54,0.5269017,0,49.79,56.98,33.24,34.98
"2016-10-22 19:50:00",258660,0.124,153.4,9.17,90.7,0,0,864.0366,0,-3.55,3.164,200,13.19,13.54,0.3904433,0,49.79,57.04,33.24,34.99
"2016-10-22 20:00:00",258661,0.041,230.4,9.3,91.9,0.06683674,0,863.9124,0,-3.541,3.16,201,13.19,13.54,0.7467809,0.418,49.79,57.04,33.24,34.99
"2016-10-22 20:10:00",258662,0.025,230.3,9.74,91.1,0.09042642,0,864.1039,0,-3.493,3.16,200,13.2,13.54,0.8794662,1.173,49.79,56.98,33.24,34.98
"2016-10-22 20:20:00",258663,0.021,354.3,9.88,93.1,0,0,864.2009,0,-3.26,3.157,206,13.2,13.54,0.8150253,0,49.79,56.98,33.24,34.98
"2016-10-22 20:30:00",258664,0.178,201,9.51,91.7,0,0,864.1524,0,-3.263,3.158,201,13.22,13.55,0.2426104,0,49.79,56.98,33.24,34.98
"2016-10-22 20:40:00",258665,0.056,196.7,9.66,92.7,0,0,864.0871,0,-3.363,3.158,200,13.2,13.59,0.4548971,0,49.79,56.98,33.24,34.98
"2016-10-22 20:50:00",258666,0.055,196.5,9.67,93.3,0,0,863.9902,0,-3.114,3.157,207,13.17,13.6,0.5231341,0,49.79,56.98,33.24,34.98
"2016-10-22 21:00:00",258667,0.086,153.5,9.44,92,0,0,863.9208,0,-3.093,3.158,202,13.13,13.59,0.3980375,0,49.79,56.98,33.24,34.98
"2016-10-22 21:10:00",258668,0.373,82.3,9.52,94.7,0.05110977,0,863.5458,0,-2.843,3.151,206,13.08,13.58,0.5875682,0.346,49.79,56.98,33.24,34.98
"2016-10-22 21:20:00",258669,0.352,51.97,10.25,94,0.08256208,0,863.59,0,-4.011,3.161,188,13.07,13.56,1.266109,1.004,49.79,56.98,33.24,34.98
"2016-10-22 21:30:00",258670,0.107,171,9.95,91.1,0,0,863.6069,0,-3.664,3.161,193,13.06,13.56,0.2160743,0,49.79,56.98,33.24,34.98
"2016-10-22 21:40:00",258671,0.144,332.8,9.75,93.9,0,0,863.6111,0,-3.455,3.157,197,13.08,13.56,0.2501886,0,49.79,56.98,33.24,34.98
"2016-10-22 21:50:00",258672,0.056,290.7,10.05,94.7,0,0,863.6195,0,-3.791,3.162,194,13.1,13.55,0.4131905,0,49.79,56.98,33.24,34.98
"2016-10-22 22:00:00",258673,0,0,9.6,91.7,0,0,863.6533,0,-3.792,3.162,192,13.1,13.56,0.09855942,0,49.79,56.98,33.24,34.98
"2016-10-22 22:10:00",258674,0.005,221.4,9.69,93.2,0,0,863.4847,0,-3.189,3.158,194,13.11,13.58,0.2805171,0,49.79,56.98,33.24,34.98
"2016-10-22 22:20:00",258675,0.135,173.4,9.18,92.5,0,0,863.1836,0,-3.37,3.162,200,13.14,13.6,0,0,49.79,56.98,33.24,34.98
"2016-10-22 22:30:00",258676,0.196,32.04,9.2,94.3,0,0,862.9772,0,-4.018,3.164,194,13.12,13.58,0.4435098,0,49.73,56.98,33.23,34.98
"2016-10-22 22:40:00",258677,0.978,44.11,10.18,83.4,0,0,862.8318,0,-3.575,3.156,198,13.05,13.6,1.497334,0,49.79,56.93,33.24,34.97
"2016-10-22 22:50:00",258678,0.908,36.92,10.34,85.2,0,0,862.638,0,-3.299,3.154,190,12.99,13.63,1.034884,0,49.73,56.98,33.23,34.98
"2016-10-22 23:00:00",258679,0.699,22.22,10.25,84,0,0,862.5643,0,-3.459,3.157,201,12.98,13.63,0.5079696,0,49.79,56.98,33.24,34.98
"2016-10-22 23:10:00",258680,0.162,7.26,10.05,82.1,0,0,862.3685,0,-2.911,3.155,191,12.98,13.65,0.3980371,0,49.79,56.93,33.24,34.97
"2016-10-22 23:20:00",258681,0.131,186.8,9.56,87.3,0,0,862.5349,0,-3.829,3.165,183,13,13.64,0.1592151,0,49.79,56.98,33.24,34.98
"2016-10-22 23:30:00",258682,0.197,168.2,8.86,90,0,0,862.5643,0,-3.763,3.168,188,13.03,13.65,0,0,49.79,56.93,33.24,34.97
"2016-10-22 23:40:00",258683,0.095,155.7,8.53,91.9,0,0,862.5184,0,-3.184,3.164,196,13.07,13.61,0,0,49.79,56.93,33.24,34.97
"2016-10-22 23:50:00",258684,0.064,157.5,8.22,94.4,0,0,862.3691,0,-3.337,3.166,189,13.05,13.59,0,0,49.79,56.93,33.24,34.97
